Auburn, CA

12:08 AM PST on November 17, 2019 (GMT -0800)
Auburn Municipal

Weather History for KAUN - September, 2019

Change the Weather History Date:

Sunday, September 1, 2019

  Actual Average Record
Temperature  
Mean Temperature - -  
Max Temperature - 88 °F 105 °F (2017)
Min Temperature - 60 °F 49 °F (1957)
Moisture  
Dew Point -    
Average Humidity    
Maximum Humidity    
Minimum Humidity    
Precipitation  
Precipitation 0.00 in - - ()
Sea Level Pressure  
Sea Level Pressure 29.95 in    
Wind  
Wind Speed 5 mph ()    
Max Wind Speed 12 mph    
Max Gust Speed 16 mph    
Visibility 10.0 miles    
Events      
Averages and records for this station are not official NWS values.
T = Trace of Precipitation, MM = Missing Value Source: Averaged Metar Reports

Daily Weather History Graph

Daily Weather History Graph

Search for Another Location

Airport or City:

Astronomy

Sep. 01, 2019 Rise Set
Actual Time 6:33 AM PDT 7:34 PM PDT
Civil Twilight 6:05 AM PDT 8:02 PM PDT
Nautical Twilight 5:33 AM PDT 8:34 PM PDT
Astronomical Twilight 4:59 AM PDT 9:08 PM PDT
Moon 9:08 AM PDT (9/1) 9:26 PM PDT (9/1)
Length of Visible Light 13h 56m
Length of Day
13h 01m
Waxing Crescent, 8% of the Moon is Illuminated
Sep 1
Waxing Crescent
Sep 5
First Quarter
Sep 13
Full
Sep 21
Last Quarter
Sep 28
New

Hourly Weather History & Observations

Time (PDT) Temp. Dew Point Humidity Pressure Visibility Wind Dir Wind Speed Gust Speed Precip Events Conditions
12:15 AM - - N/A% 29.94 in 10.0 mi East 5.8 mph - N/A   Clear
12:35 AM - - N/A% 29.95 in 10.0 mi East 4.6 mph - N/A   Clear
12:55 AM - - N/A% 29.95 in 10.0 mi East 9.2 mph - N/A   Clear
1:15 AM - - N/A% 29.95 in 10.0 mi East 9.2 mph - N/A   Clear
1:35 AM - - N/A% 29.95 in 10.0 mi East 10.4 mph - N/A   Clear
1:55 AM - - N/A% 29.95 in 10.0 mi East 9.2 mph - N/A   Clear
2:15 AM - - N/A% 29.94 in 10.0 mi East 8.1 mph - N/A   Clear
2:35 AM - - N/A% 29.94 in 10.0 mi East 8.1 mph - N/A   Clear
2:55 AM - - N/A% 29.94 in 10.0 mi East 9.2 mph - N/A   Clear
3:15 AM - - N/A% 29.94 in 10.0 mi East 10.4 mph - N/A   Clear
3:35 AM - - N/A% 29.94 in 10.0 mi East 11.5 mph - N/A   Clear
3:55 AM - - N/A% 29.94 in 10.0 mi East 10.4 mph - N/A   Clear
4:15 AM - - N/A% 29.94 in 10.0 mi East 10.4 mph - N/A   Clear
4:35 AM - - N/A% 29.94 in 10.0 mi East 9.2 mph - N/A   Clear
4:55 AM - - N/A% 29.94 in 10.0 mi East 9.2 mph - N/A   Clear
5:15 AM - - N/A% 29.95 in 10.0 mi East 8.1 mph - N/A   Clear
5:35 AM - - N/A% 29.95 in 10.0 mi East 9.2 mph - N/A   Clear
5:55 AM - - N/A% 29.95 in 10.0 mi East 8.1 mph - N/A   Clear
6:15 AM - - N/A% 29.95 in 10.0 mi East 6.9 mph - N/A   Clear
6:35 AM - - N/A% 29.96 in 10.0 mi East 8.1 mph - N/A   Clear
6:55 AM - - N/A% 29.96 in 10.0 mi East 6.9 mph 12.7 mph N/A   Clear
7:15 AM - - N/A% 29.97 in 10.0 mi East 9.2 mph - N/A   Clear
7:35 AM - - N/A% 29.97 in 10.0 mi East 9.2 mph - N/A   Clear
7:55 AM - - N/A% 29.98 in 10.0 mi East 6.9 mph - N/A   Clear
8:15 AM - - N/A% 29.98 in 10.0 mi Calm Calm - N/A   Clear
8:35 AM - - N/A% 29.98 in 10.0 mi East 5.8 mph - N/A   Clear
8:55 AM - - N/A% 29.98 in 10.0 mi East 5.8 mph - N/A   Clear
9:15 AM - - N/A% 29.99 in 10.0 mi East 3.5 mph - N/A   Clear
9:35 AM - - N/A% 29.99 in 10.0 mi Calm Calm - N/A   Clear
9:55 AM - - N/A% 29.99 in 10.0 mi Calm Calm - N/A   Clear
10:15 AM - - N/A% 29.99 in 10.0 mi Calm Calm - N/A   Clear
10:35 AM - - N/A% 29.99 in 10.0 mi Calm Calm - N/A   Clear
10:55 AM - - N/A% 29.99 in 10.0 mi Calm Calm - N/A   Clear
11:15 AM - - N/A% 29.99 in 10.0 mi Calm Calm - N/A   Clear
11:35 AM - - N/A% 29.99 in 10.0 mi Calm Calm - N/A   Clear
11:55 AM - - N/A% 29.99 in 10.0 mi SSW 5.8 mph - N/A   Clear
12:15 PM - - N/A% 29.99 in 10.0 mi SW 6.9 mph - N/A   Clear
12:35 PM - - N/A% 29.98 in 10.0 mi Variable 3.5 mph - N/A   Clear
12:55 PM - - N/A% 29.98 in 10.0 mi Calm Calm - N/A   Clear
1:15 PM - - N/A% 29.97 in 10.0 mi Calm Calm - N/A   Clear
1:35 PM - - N/A% 29.97 in 10.0 mi SSW 8.1 mph - N/A   Clear
1:55 PM - - N/A% 29.97 in 10.0 mi Calm Calm - N/A   Clear
2:15 PM - - N/A% 29.96 in 10.0 mi SW 6.9 mph - N/A   Clear
2:35 PM - - N/A% 29.96 in 10.0 mi SW 11.5 mph - N/A   Clear
2:55 PM - - N/A% 29.95 in 10.0 mi WSW 6.9 mph 13.8 mph N/A   Clear
3:15 PM - - N/A% 29.95 in 10.0 mi Calm Calm 11.5 mph N/A   Clear
3:35 PM - - N/A% 29.94 in 10.0 mi Calm Calm 11.5 mph N/A   Clear
3:55 PM - - N/A% 29.94 in 10.0 mi SSW 9.2 mph 16.1 mph N/A   Clear
4:15 PM - - N/A% 29.94 in 10.0 mi Calm Calm 11.5 mph N/A   Clear
4:35 PM - - N/A% 29.94 in 10.0 mi WSW 9.2 mph - N/A   Clear
4:55 PM - - N/A% 29.94 in 10.0 mi Variable 5.8 mph - N/A   Clear
5:15 PM - - N/A% 29.93 in 10.0 mi Calm Calm - N/A   Clear
5:35 PM - - N/A% 29.93 in 10.0 mi WSW 3.5 mph - N/A   Clear
5:55 PM - - N/A% 29.93 in 10.0 mi Calm Calm - N/A   Clear
6:15 PM - - N/A% 29.93 in 10.0 mi West 5.8 mph - N/A   Clear
6:35 PM - - N/A% 29.93 in 10.0 mi Calm Calm - N/A   Clear
6:55 PM - - N/A% 29.92 in 10.0 mi Calm Calm - N/A   Clear
7:15 PM - - N/A% 29.92 in 10.0 mi Calm Calm - N/A   Clear
7:35 PM - - N/A% 29.92 in 10.0 mi Calm Calm - N/A   Clear
7:55 PM - - N/A% 29.92 in 10.0 mi Calm Calm - N/A   Clear
8:15 PM - - N/A% 29.92 in 10.0 mi Calm Calm - N/A   Clear
8:35 PM - - N/A% 29.93 in 10.0 mi Calm Calm - N/A   Clear
8:55 PM - - N/A% 29.93 in 10.0 mi Calm Calm - N/A   Clear
9:15 PM - - N/A% 29.94 in 10.0 mi Calm Calm - N/A   Clear
9:35 PM - - N/A% 29.94 in 10.0 mi Calm Calm - N/A   Clear
9:55 PM - - N/A% 29.94 in 10.0 mi East 5.8 mph - N/A   Clear
10:15 PM - - N/A% 29.94 in 10.0 mi East 5.8 mph - N/A   Clear
10:35 PM - - N/A% 29.94 in 10.0 mi Calm Calm - N/A   Clear
10:55 PM - - N/A% 29.94 in 10.0 mi Calm Calm - N/A   Clear
11:15 PM - - N/A% 29.95 in 10.0 mi East 8.1 mph - N/A   Clear
11:35 PM - - N/A% 29.95 in 10.0 mi ESE 10.4 mph - N/A   Clear
11:55 PM - - N/A% 29.95 in 10.0 mi East 11.5 mph - N/A   Clear